[[{"header":{"parameterUnit":"m.s-1","parameterCategory":1,"la1":30.2991,"la2":30.254,"lo1":-89.0895,"lo2":-89.0444,"dy":0.0017,"dx":0.0017,"nx":28,"ny":28,"refTime":"2025-01-12T03:00:00:Z","depth":0,"parameterNumber":2,"parameterNumberName":"U-component_of_WINDS"},"data":[0,0,0,0,0,0,0,0,0,0,0,0,0,0,0,0,0,0,0,0,0,0,0,0,0,0,0,0,0,0,0,0,0,0,0,0,0,0,0,0,0,0,0,0,0,0,0,0,0,0,0,0,0,0,0,0,0,0,-4.1565,-4.1565,0,-4.1533,-4.1533,-4.1532,-4.1368,-4.1364,-4.136,-4.1357,-4.1326,-4.1328,-4.1331,0,0,0,0,0,0,0,0,0,0,0,0,0,-4.1486,-4.1489,-4.1565,-4.1565,-4.1564,-4.1533,-4.1533,-4.1532,-4.1369,-4.1364,-4.1359,-4.1355,-4.1325,-4.1328,-4.1331,0,0,0,0,0,0,0,0,0,0,0,0,0,-4.1494,-4.1489,-4.1565,-4.1479,-4.1471,-4.1533,-4.1533,-4.1532,-4.137,-4.1364,-4.1358,-4.1353,-4.1324,-4.1328,-4.1332,-4.1475,0,0,-4.1345,-4.1347,0,0,0,0,0,0,0,0,-4.1494,-4.1497,-4.1492,-4.1485,-4.1476,-4.1448,-4.1493,-4.1513,-4.1371,-4.1408,-4.1356,-4.135,-4.1371,-4.1371,-4.1378,-4.1474,-4.1473,-4.1345,-4.1348,-4.135,-4.1351,0,0,0,0,0,0,0,-4.1494,-4.1498,-4.1552,-4.1492,-4.1482,-4.1442,-4.1437,-4.1496,-4.1423,-4.1405,-4.1392,-4.1391,-4.1366,-4.1375,-4.1376,-4.1472,-4.1345,-4.1349,-4.1352,-4.1353,-4.1684,-4.169,0,0,0,0,0,0,-4.1505,-4.1498,-4.1553,-4.1551,-4.1471,-4.1449,-4.1443,-4.1463,-4.1422,-4.141,-4.1396,-4.1383,-4.137,-4.1372,-4.1375,-4.1539,-4.135,-4.1354,-4.1356,-4.1678,-4.1685,-4.1692,0,0,0,0,0,0,-4.1504,-4.1511,-4.1555,-4.1522,-4.1524,-4.1456,-4.1481,-4.1466,-4.1474,-4.1415,-4.1402,-4.1418,-4.1366,-4.1369,-4.1451,-4.1536,-4.1355,-4.1359,-4.167,-4.168,-4.1689,-4.187,0,0,0,0,0,0,-4.1502,-4.1512,-4.1565,-4.1524,-4.1526,-4.1632,-4.1486,-4.1469,-4.1482,-4.1465,-4.1433,-4.1422,-4.1361,-4.1446,-4.1456,-4.1538,-4.1363,-4.1662,-4.1675,-4.1686,-4.1856,-4.1884,-4.1909,0,0,0,0,0,-4.15,-4.1618,-4.1569,-4.1576,-4.1592,-4.1637,-4.1638,-4.1566,-4.1489,-4.1542,-4.1505,-4.1423,-4.1526,-4.1456,-4.1465,-4.1551,-4.1657,-4.1671,-4.1685,-4.1844,-4.1879,-4.1908,0,0,0,0,0,0,-4.1671,-4.1611,-4.1556,-4.1664,-4.1657,-4.1609,-4.1674,-4.1605,-4.162,-4.1604,-4.1514,-4.1508,-4.1604,-4.1585,-4.1509,-4.1687,-4.1577,-4.1594,-4.1695,-4.1728,-4.1753,-4.1755,-4.1366,0,0,0,0,0,-4.1722,-4.1763,-4.1708,-4.1809,-4.1808,-4.1743,-4.1759,-4.1704,-4.1694,-4.169,-4.1658,-4.1652,-4.1682,-4.1704,-4.1729,-4.1853,-4.1844,-4.1917,-4.1943,-4.1965,-4.198,-4.2044,-4.2075,-4.1738,-4.1738,-4.1738,0,0,-4.1826,-4.1798,-4.183,-4.1843,-4.1831,-4.1876,-4.1741,-4.1794,-4.1827,-4.1698,-4.1773,-4.1751,-4.1737,-4.1842,-4.1886,-4.1829,-4.2071,-4.1983,-4.2001,-4.2003,-4.2062,-4.2094,-4.2122,-4.1748,-4.1746,-4.1744,0,0,-4.2039,-4.2023,-4.2104,-4.2095,-4.2078,-4.2034,-4.2054,-4.2017,-4.1997,-4.2071,-4.1975,-4.2014,-4.2068,-4.2062,-4.2067,-4.2279,-4.2204,-4.229,-4.2427,-4.249,-4.2517,-4.254,-4.2615,-4.2643,-4.2306,-4.2306,-4.2307,0,-4.217,-4.2234,-4.2155,-4.2215,-4.2223,-4.2109,-4.2191,-4.2186,-4.2179,-4.2188,-4.2125,-4.2191,-4.2174,-4.2275,-4.2327,-4.2335,-4.2355,-4.2292,-4.2519,-4.2542,-4.2562,-4.2632,-4.2661,-4.2317,-4.2316,-4.2314,-4.2313,0,-4.2396,-4.2442,-4.251,-4.2506,-4.2522,-4.2593,-4.2525,-4.2552,-4.2496,-4.2459,-4.2537,-4.2513,-4.253,-4.2551,-4.2497,-4.2645,-4.261,-4.2535,-4.2422,-4.2606,-4.267,-4.2697,-4.2332,-4.2328,-4.2325,-4.2322,0,0,-4.2714,-4.2666,-4.2692,-4.2688,-4.2662,-4.2696,-4.2763,-4.278,-4.2804,-4.2804,-4.2857,-4.2907,-4.2837,-4.2842,-4.2787,-4.2844,-4.3013,-4.2761,-4.2759,-4.2807,-4.3173,-4.3228,-4.3261,-4.2964,-4.2968,-4.2972,-4.3174,0,-4.2916,-4.3025,-4.2957,-4.3077,-4.3118,-4.3011,-4.3068,-4.306,-4.3027,-4.3058,-4.3022,-4.3058,-4.2964,-4.2966,-4.3017,-4.2981,-4.3085,-4.2966,-4.3012,-4.3014,-4.3016,-4.3295,-4.3353,-4.3544,-4.3198,-4.3203,-4.3206,0,-4.3166,-4.3176,-4.3301,-4.3266,-4.3281,-4.3334,-4.3344,-4.3375,-4.3363,-4.3336,-4.3343,-4.3274,-4.3337,-4.3228,-4.3314,-4.3235,-4.325,-4.3236,-4.3241,-4.3241,-4.312,-4.3301,-4.3603,-4.3631,-4.3245,-4.3242,-4.3239,0,-4.3384,-4.3429,-4.3508,-4.3509,-4.3472,-4.3512,-4.3498,-4.348,-4.3495,-4.3505,-4.3513,-4.3531,-4.3541,-4.3556,-4.3494,-4.3421,-4.3589,-4.3474,-4.3567,-4.3569,-4.3605,-4.3604,-4.3913,-4.3619,-4.3619,-4.3618,-4.3618,0,-4.3615,-4.3695,-4.3605,-4.3654,-4.3741,-4.3662,-4.375,-4.3726,-4.3711,-4.3754,-4.3664,-4.3706,-4.3622,-4.3657,-4.3609,-4.3687,-4.3693,-4.3672,-4.3658,-4.3679,-4.3681,-4.3686,-4.367,-4.3626,-4.3624,-4.3623,-4.3621,0,-4.3872,-4.3815,-4.3894,-4.3853,-4.3845,-4.391,-4.3875,-4.3919,-4.3881,-4.3936,-4.3945,-4.3886,-4.3921,-4.3862,-4.3891,-4.3859,-4.3967,-4.3934,-4.3971,-4.396,-4.4056,-4.4047,-4.4377,-4.4416,-4.41,-4.4103,-4.4106,0,-4.4022,-4.4081,-4.4046,-4.4068,-4.4059,-4.4096,-4.411,-4.4036,-4.4055,-4.4047,-4.4092,-4.412,-4.4138,-4.42,-4.416,-4.4182,-4.4147,-4.4262,-4.415,-4.4169,-4.4147,-4.4143,-4.4148,-4.4284,-4.4288,-4.4291,-4.4293,0,-4.4295,-4.4264,-4.4288,-4.4303,-4.4323,-4.4331,-4.4333,-4.4357,-4.4278,-4.4305,-4.4339,-4.4354,-4.4383,-4.4412,-4.4424,-4.441,-4.434,-4.433,-4.4352,-4.4372,-4.4391,-4.438,-4.4031,-4.4322,-4.4319,-4.4317,-4.4315,-4.4314,-4.4501,-4.4548,-4.4531,-4.4561,-4.4555,-4.4559,-4.4598,-4.4565,-4.4593,-4.461,-4.4565,-4.4611,-4.4598,-4.4607,-4.4602,-4.4637,-4.4586,-4.4619,-4.4627,-4.4636,-4.465,-4.4388,-4.4639,-4.4638,-4.4638,-4.4637,-4.4636,0,-4.4767,-4.4751,-4.478,-4.4785,-4.4809,-4.4741,-4.4739,-4.4764,-4.4805,-4.4799,-4.4819,-4.486,-4.4888,-4.4851,-4.4872,-4.4908,-4.4876,-4.4916,-4.4911,-4.4909,-4.4695,-4.4672,-4.4941,-4.4941,-4.4941,-4.4941,-4.4941,-4.4941,-4.4909,-4.4984,-4.4952,-4.5024,-4.5007,-4.505,-4.5056,-4.5059,-4.5054,-4.5103,-4.5125,-4.5101,-4.5083,-4.5103,-4.5126,-4.5114,-4.5125,-4.5177,-4.5154,-4.4954,-4.4924,-4.4895,-4.4874,-4.518,-4.5181,-4.5364,-4.5366,-4.5367]},{"header":{"parameterUnit":"m.s-1","parameterCategory":1,"la1":30.2991,"la2":30.254,"lo1":-89.0895,"lo2":-89.0444,"dy":0.0017,"dx":0.0017,"nx":28,"ny":28,"refTime":"2025-01-12T03:00:00:Z","depth":0,"parameterNumber":3,"parameterNumberName":"V-component_of_WINDS"},"data":[0,0,0,0,0,0,0,0,0,0,0,0,0,0,0,0,0,0,0,0,0,0,0,0,0,0,0,0,0,0,0,0,0,0,0,0,0,0,0,0,0,0,0,0,0,0,0,0,0,0,0,0,0,0,0,0,0,0,-1.0556,-1.0557,0,-1.0635,-1.0636,-1.0637,-1.0714,-1.0715,-1.0716,-1.0717,-1.0794,-1.0795,-1.0796,0,0,0,0,0,0,0,0,0,0,0,0,0,-1.0467,-1.0468,-1.0556,-1.0557,-1.0558,-1.0635,-1.0636,-1.0637,-1.0714,-1.0715,-1.0716,-1.0717,-1.0794,-1.0795,-1.0797,0,0,0,0,0,0,0,0,0,0,0,0,0,-1.0522,-1.0469,-1.0556,-1.0606,-1.0611,-1.0635,-1.0636,-1.0638,-1.0713,-1.0715,-1.0716,-1.0718,-1.0793,-1.0795,-1.0797,-1.0777,0,0,-1.0802,-1.0803,0,0,0,0,0,0,0,0,-1.0519,-1.0525,-1.0597,-1.0602,-1.0608,-1.0666,-1.0633,-1.0684,-1.0713,-1.0674,-1.0717,-1.0719,-1.075,-1.0756,-1.0767,-1.0781,-1.0784,-1.0802,-1.0803,-1.0804,-1.0804,0,0,0,0,0,0,0,-1.0515,-1.0522,-1.0588,-1.0598,-1.0605,-1.0623,-1.0632,-1.0643,-1.0703,-1.0678,-1.0684,-1.0692,-1.0753,-1.0765,-1.0769,-1.0785,-1.0802,-1.0804,-1.0805,-1.0805,-1.0784,-1.0783,0,0,0,0,0,0,-1.0504,-1.0518,-1.0585,-1.059,-1.0566,-1.0623,-1.0634,-1.0646,-1.0703,-1.0713,-1.0691,-1.0695,-1.0762,-1.0767,-1.0772,-1.0751,-1.0804,-1.0805,-1.0806,-1.0786,-1.0784,-1.0782,0,0,0,0,0,0,-1.0502,-1.0509,-1.0582,-1.0556,-1.0566,-1.0623,-1.0636,-1.0647,-1.0659,-1.0713,-1.0723,-1.0692,-1.0763,-1.077,-1.0775,-1.0755,-1.0806,-1.0808,-1.0788,-1.0785,-1.0783,-1.0709,0,0,0,0,0,0,-1.0499,-1.0508,-1.0502,-1.0555,-1.0567,-1.0584,-1.0635,-1.0647,-1.0662,-1.0669,-1.0717,-1.0726,-1.0765,-1.0772,-1.0777,-1.0758,-1.0809,-1.079,-1.0787,-1.0784,-1.0713,-1.0704,-1.0696,0,0,0,0,0,-1.0495,-1.0478,-1.0501,-1.0509,-1.0562,-1.0583,-1.059,-1.0635,-1.066,-1.0653,-1.0688,-1.0725,-1.0757,-1.0772,-1.0778,-1.0759,-1.0791,-1.0787,-1.0784,-1.0717,-1.0706,-1.0697,0,0,0,0,0,0,-1.042,-1.0486,-1.0513,-1.0512,-1.0541,-1.0596,-1.0589,-1.0623,-1.0645,-1.065,-1.0705,-1.0715,-1.0713,-1.0737,-1.0753,-1.0742,-1.0779,-1.0776,-1.0726,-1.0716,-1.0708,-1.07,-1.081,0,0,0,0,0,-1.0404,-1.0417,-1.0473,-1.0467,-1.048,-1.0532,-1.0543,-1.0576,-1.0608,-1.062,-1.0655,-1.0684,-1.07,-1.071,-1.0728,-1.0718,-1.0728,-1.0708,-1.07,-1.0692,-1.0688,-1.0682,-1.0673,-1.077,-1.0771,-1.0771,0,0,-1.0369,-1.0407,-1.0411,-1.0453,-1.0479,-1.0489,-1.0542,-1.0551,-1.0559,-1.0622,-1.0628,-1.0654,-1.069,-1.0686,-1.0687,-1.0706,-1.0664,-1.0688,-1.0682,-1.0682,-1.0677,-1.0668,-1.0659,-1.0768,-1.0769,-1.0769,0,0,-1.0311,-1.0342,-1.0339,-1.0365,-1.0405,-1.0439,-1.0438,-1.0488,-1.0507,-1.0515,-1.0562,-1.0571,-1.0599,-1.0622,-1.0637,-1.0586,-1.0619,-1.0591,-1.0546,-1.0538,-1.0531,-1.0524,-1.0503,-1.0495,-1.0588,-1.0587,-1.0587,0,-1.0263,-1.0281,-1.0333,-1.0339,-1.0354,-1.0413,-1.0409,-1.0431,-1.0474,-1.0483,-1.0505,-1.054,-1.0568,-1.0569,-1.0557,-1.0568,-1.0567,-1.0584,-1.0528,-1.0522,-1.0516,-1.0497,-1.0489,-1.0583,-1.0584,-1.0584,-1.0585,0,-1.0218,-1.0231,-1.0223,-1.0264,-1.0279,-1.028,-1.033,-1.0339,-1.037,-1.0401,-1.0407,-1.0443,-1.0469,-1.0472,-1.0503,-1.0477,-1.0487,-1.0518,-1.0556,-1.0502,-1.0484,-1.0477,-1.0578,-1.0579,-1.058,-1.0581,0,0,-1.0113,-1.0183,-1.0179,-1.0197,-1.0245,-1.0254,-1.0257,-1.0283,-1.0288,-1.0316,-1.0318,-1.034,-1.0368,-1.0385,-1.0419,-1.0413,-1.0367,-1.0444,-1.0446,-1.0426,-1.0336,-1.031,-1.0301,-1.039,-1.0389,-1.0388,-1.0332,0,-1.0061,-1.007,-1.0116,-1.0111,-1.0121,-1.0177,-1.0179,-1.0208,-1.0237,-1.0249,-1.0282,-1.0295,-1.0333,-1.0343,-1.034,-1.0373,-1.0349,-1.0378,-1.039,-1.0389,-1.0376,-1.0292,-1.0266,-1.0211,-1.0326,-1.0325,-1.0324,0,-1.0001,-1.0025,-1.002,-1.0067,-1.0073,-1.0074,-1.01,-1.0112,-1.0145,-1.0166,-1.0185,-1.0223,-1.0227,-1.0264,-1.0269,-1.0288,-1.0295,-1.0312,-1.0311,-1.0311,-1.0351,-1.0287,-1.0195,-1.0185,-1.0314,-1.0315,-1.0316,0,-0.992,-0.9952,-0.9953,-0.9967,-1.0022,-1.0021,-1.0043,-1.0078,-1.009,-1.0113,-1.012,-1.0143,-1.0155,-1.0171,-1.0213,-1.0237,-1.0211,-1.0253,-1.0227,-1.0225,-1.0217,-1.0216,-1.0121,-1.0227,-1.0227,-1.0227,-1.0228,0,-0.9855,-0.9849,-0.9917,-0.9917,-0.9912,-0.9965,-0.9958,-0.9986,-1.0016,-1.0021,-1.0071,-1.0074,-1.0132,-1.0141,-1.0175,-1.0172,-1.0177,-1.0193,-1.0201,-1.0187,-1.0184,-1.019,-1.0193,-1.0225,-1.0226,-1.0226,-1.0226,0,-0.9762,-0.9808,-0.9812,-0.9864,-0.9877,-0.987,-0.9914,-0.9915,-0.9948,-0.9954,-0.9958,-1.0009,-1.0022,-1.0067,-1.0092,-1.0114,-1.0099,-1.0118,-1.0088,-1.0093,-1.0063,-1.0063,-0.9965,-0.9953,-1.007,-1.0069,-1.0068,0,-0.9716,-0.9713,-0.9764,-0.9771,-0.9792,-0.9804,-0.9816,-0.9868,-0.9878,-0.9915,-0.9911,-0.9929,-0.9945,-0.9964,-1.0002,-1.002,-1.0037,-1.0002,-1.004,-1.0025,-1.0032,-1.0031,-1.0029,-0.9992,-0.9991,-0.9989,-0.9988,0,-0.9627,-0.965,-0.9666,-0.969,-0.9703,-0.9724,-0.9748,-0.9751,-0.9809,-0.9817,-0.9832,-0.9845,-0.987,-0.9886,-0.9911,-0.9933,-0.9968,-0.9977,-0.9971,-0.9954,-0.9935,-0.9941,-1.0061,-0.9978,-0.9979,-0.998,-0.998,-0.9981,-0.9554,-0.9553,-0.9588,-0.9604,-0.9628,-0.9648,-0.9651,-0.9685,-0.9698,-0.9723,-0.9753,-0.9763,-0.9795,-0.9832,-0.9851,-0.9858,-0.9878,-0.9871,-0.9868,-0.9865,-0.9856,-0.9937,-0.9863,-0.9864,-0.9864,-0.9864,-0.9865,0,-0.9464,-0.949,-0.9505,-0.9536,-0.9548,-0.9584,-0.9612,-0.9618,-0.9627,-0.9654,-0.967,-0.9685,-0.9701,-0.974,-0.9759,-0.9757,-0.9774,-0.976,-0.9758,-0.9762,-0.9839,-0.984,-0.9746,-0.9746,-0.9746,-0.9746,-0.9746,-0.9746,-0.9419,-0.9418,-0.9445,-0.9455,-0.9481,-0.9492,-0.9504,-0.9523,-0.9544,-0.9559,-0.9573,-0.9599,-0.963,-0.9652,-0.9666,-0.9678,-0.968,-0.966,-0.9676,-0.9746,-0.9757,-0.9768,-0.9769,-0.9661,-0.9661,-0.9598,-0.9598,-0.9597]}]]